#timestamp,LO_Frequency,Hit,StdDev 
1621576815.0,286046998.8,N
1621576815.9,286046998.8,N
1621576835.8,286046998.9,N
1621576855.6,286047000.7,N
1621576875.4,286047001.8,N
1621576895.3,286047000.9,N
1621576915.1,286047000.2,N
1621576935.9,286047002.2,N
1621576955.7,286047002.6,N
1621576975.5,286047002.3,N
1621576995.4,286047001.8,N
1621577015.2,286047002.8,N
1621577035.0,286047000.6,N
1621577036.0,286047000.6,N
1621577055.8,286046998.4,N
1621577075.6,286047000.2,N
1621577095.5,286047002.1,N
1621577115.3,286047004.4,N
1621577135.1,286047003.6,N
1621577155.9,286047004.2,N
1621577175.7,286047001.9,N
1621577195.6,286047002.3,N
1621577215.4,286047001.4,N
1621577235.2,286047004.2,N
1621577255.1,286047005.4,N
1621577275.8,286047004.8,N
1621577295.7,286047002.9,N
1621577315.5,286047001.7,N
1621577335.4,286047003.5,N
1621577355.2,286047003.4,N
1621577375.0,286047005.6,Y
1621577375.9,286047005.6,P
1621577395.8,286047002.2,N
1621577415.6,286047000.3,N
1621577435.5,286046998.7,N
1621577455.3,286047000.0,N
1621577475.2,286047000.4,N
1621577495.9,286047000.4,N
1621577515.7,286047000.9,N
1621577535.6,286047000.3,N
1621577555.4,286047002.5,N
1621577575.3,286047000.3,N
1621577595.1,286047000.9,N
1621577596.0,286047000.9,N
1621577615.8,286047001.1,N
1621577635.7,286047000.7,N
1621577655.5,286046998.1,N
1621577675.3,286046998.6,N
1621577695.2,286046999.3,N
1621577715.0,286047001.2,N
1621577715.9,286047001.2,N
1621577735.8,286046998.2,N
1621577755.6,286046998.7,N
1621577775.5,286047000.4,N
1621577795.3,286046999.1,N
1621577815.1,286046998.3,N
1621577835.9,286047002.7,N
1621577855.7,286046999.7,N
1621577875.5,286047000.1,N
1621577895.4,286047002.7,N
1621577915.2,286047002.2,N
1621577935.1,286047000.6,N
1621577936.0,286047000.6,N
1621577955.8,286047000.8,N
1621577975.6,286046999.5,N
1621577995.5,286047001.2,N
1621578015.3,286046998.1,N
1621578035.2,286047000.4,N
1621578055.9,286047000.5,N
1621578075.7,286047002.5,N
1621578095.6,286047002.8,N
1621578115.4,286047002.7,N
1621578135.2,286047002.3,N
1621578155.1,286047002.6,N
1621578156.0,286047002.6,N
1621578175.8,286047002.5,N
1621578195.7,286047001.6,N
1621578215.5,286047002.8,N
1621578235.3,286047001.6,N
1621578255.2,286047001.6,N
1621578275.0,286047001.7,N
1621578275.9,286047001.7,N
1621578295.7,286047004.1,N
1621578315.6,286047002.5,N
1621578335.4,286047002.5,N
1621578355.3,286047002.5,N
1621578375.1,286047000.0,N
1621578395.8,286047002.8,N
1621578415.7,286047002.2,N
1621578435.5,286047001.0,N
1621578455.4,286047000.9,N
1621578475.2,286047000.1,N
1621578495.0,286047002.8,N
1621578495.9,286047002.8,N
1621578515.8,286047000.8,N
1621578535.6,286047000.1,N
1621578555.5,286046998.5,N
1621578575.3,286046999.5,N
1621578595.1,286046998.2,N
1621578615.9,286046999.5,N
1621578635.7,286046998.9,N
1621578655.6,286047000.9,N
1621578675.4,286046995.0,Y
1621578695.2,286046999.6,P
1621578715.1,286046998.3,N
1621578716.0,286046998.3,N
1621578735.8,286046998.7,N
1621578755.6,286046998.3,N
1621578775.5,286046997.8,N
1621578795.3,286046998.8,N
1621578815.2,286046996.5,Y
1621578835.9,286047000.4,P
1621578855.7,286047002.1,N
1621578875.6,286047004.4,P
1621578895.4,286046999.8,N
1621578915.2,286047000.8,N
1621578935.1,286046998.8,N
1621578936.0,286046998.8,N
1621578955.8,286046998.5,N
1621578975.7,286046997.6,N
1621578995.5,286046996.3,N
1621579015.3,286046994.1,N
1621579035.2,286046993.3,N
1621579055.0,286046995.3,N
1621579055.9,286046995.3,N
1621579075.7,286046995.8,N
1621579095.6,286046997.6,N
1621579115.4,286046995.6,N
1621579135.3,286046994.9,N
1621579155.1,286046996.6,N
1621579156.0,286046996.6,N
1621579175.8,286046996.9,N
1621579195.7,286046999.5,N
1621579215.5,286046996.8,N
1621579235.4,286046995.0,N
1621579255.2,286046996.1,N
1621579275.0,286046993.9,N
1621579275.9,286046993.9,N
1621579295.8,286046992.4,N
1621579315.6,286046994.4,N
1621579335.4,286046994.1,N
1621579355.3,286046993.4,N
1621579375.1,286046994.5,N
1621579395.9,286046993.4,N
1621579415.7,286046994.7,N
1621579435.5,286046993.0,Y
1621579455.4,286046996.0,P
1621579475.2,286046995.6,P
1621579495.0,286046995.7,P
1621579496.0,286046995.7,Y
1621579515.8,286046996.5,P
1621579535.6,286046997.1,P
1621579555.5,286046997.0,P
1621579575.3,286046997.2,Y
1621579595.1,286047000.7,P
1621579615.9,286047000.0,N
1621579635.7,286047002.4,N
1621579655.6,286047002.2,N
1621579675.4,286047002.6,N
1621579695.2,286047000.3,N
1621579715.1,286047002.8,N
1621579716.0,286047002.8,N
1621579735.8,286047002.4,N
1621579755.6,286046999.8,N
1621579775.5,286047002.2,N
1621579795.3,286047004.4,N
1621579815.2,286047002.3,N
1621579835.9,286046999.9,N
1621579855.7,286047001.1,N
1621579875.6,286047000.0,N
1621579895.4,286047000.8,N
1621579915.2,286046999.0,N
1621579935.1,286046997.1,N
1621579936.0,286046997.1,N
1621579955.8,286046998.0,N
1621579975.7,286046995.7,N
1621579995.5,286046995.9,N
1621580015.3,286046993.4,N
1621580035.2,286046994.5,N
1621580055.9,286046993.6,N
1621580075.7,286046993.6,N
1621580095.6,286046997.3,N
1621580115.4,286046998.0,N
1621580135.3,286046999.1,N
1621580155.1,286046999.1,N
1621580156.0,286046999.1,N
1621580175.8,286046995.0,N
1621580195.7,286046997.9,N
1621580215.5,286046998.8,N
1621580235.3,286046998.5,N
1621580255.2,286046998.7,N
1621580275.0,286047000.7,N
1621580275.9,286047000.7,N
1621580295.8,286047000.8,N
1621580315.6,286047000.8,N
1621580335.4,286047000.5,N
1621580355.3,286046999.8,N
1621580375.1,286047002.3,N
1621580395.9,286047000.4,N
